Weather History for Los Angeles Downtown, CA

Change the Weather History Date:

Sunday, July 20, 2014

  Actual Average Record
Temperature  
Mean Temperature 73 °F 74 °F  
Max Temperature 80 °F 84 °F 100 °F (1960)
Min Temperature 66 °F 64 °F 52 °F (1892)
Degree Days  
Heating Degree Days 0 0  
Month to date heating degree days 0 0  
Since 1 June heating degree days 0 8  
Since 1 July heating degree days 0 0  
Cooling Degree Days 8 9  
Month to date cooling degree days 172 162  
Year to date cooling degree days 594 450  
Since 1 June cooling degree days 300 296  
Growing Degree Days 22 (Base 50)    
Moisture  
Dew Point 60 °F    
Average Humidity 68    
Maximum Humidity 81    
Minimum Humidity 54    
Precipitation  
Precipitation 0.00 in 0.00 in 0.00 in (2014)
Month to date precipitation T 0.01  
Year to date precipitation 5.11 10.62  
Since 1 July precipitation T 0.01  
Sea Level Pressure  
Sea Level Pressure 29.97 in    
Wind  
Wind Speed 2 mph (WSW)    
Max Wind Speed 10 mph    
Max Gust Speed 16 mph    
Visibility 10 miles    
Events      
T = Trace of Precipitation, MM = Missing Value Source: NWS Daily Summary

Daily Weather History Graph

Daily Weather History Graph

Search for Another Location

Airport:

Trip Planner

Search our weather history database for the weather conditions in past years. The results will help you decide how hot, cold, wet, or windy it might be!

Date:

Astronomy

Jul. 20, 2014 Rise Set
Actual Time 5:56 AM PDT 8:02 PM PDT
Civil Twilight 5:28 AM PDT 8:30 PM PDT
Nautical Twilight 4:53 AM PDT 9:04 PM PDT
Astronomical Twilight 4:16 AM PDT 9:41 PM PDT
Moon 1:05 AM PDT (7/20) 2:54 PM PDT (7/20)
Length of Visible Light 15h 02m
Length of Day
14h 06m
Waning Crescent, 32% of the Moon is Illuminated
Jul 20
Waning Crescent
Jul 26
New
Aug 3
First Quarter
Aug 10
Full
Aug 17
Last Quarter

Hourly Weather History & Observations

Time (PDT) Temp. Dew Point Humidity Pressure Visibility Wind Dir Wind Speed Gust Speed Precip Events Conditions
12:47 AM 66.0 °F 60.1 °F 81% 29.96 in 10.0 mi Calm Calm - N/A   Clear
1:47 AM 66.0 °F 59.0 °F 78% 29.96 in 10.0 mi Calm Calm - N/A   Clear
2:47 AM 66.0 °F 59.0 °F 78% 29.94 in 10.0 mi Calm Calm - N/A   Scattered Clouds
2:52 AM 66.0 °F 59.0 °F 78% 29.94 in 10.0 mi Calm Calm - N/A   Mostly Cloudy
3:33 AM 66.9 °F 59.0 °F 76% 29.94 in 10.0 mi Calm Calm - N/A   Scattered Clouds
3:47 AM 66.9 °F 60.1 °F 79% 29.94 in 10.0 mi Calm Calm - N/A   Partly Cloudy
3:59 AM 66.9 °F 60.1 °F 79% 29.94 in 10.0 mi Calm Calm - N/A   Mostly Cloudy
4:47 AM 66.9 °F 60.1 °F 79% 29.94 in 10.0 mi Calm Calm - N/A   Mostly Cloudy
5:07 AM 66.9 °F 60.1 °F 79% 29.95 in 10.0 mi Calm Calm - N/A   Mostly Cloudy
5:12 AM 66.9 °F 60.1 °F 79% 29.96 in 10.0 mi Calm Calm - N/A   Mostly Cloudy
5:47 AM 66.9 °F 60.1 °F 79% 29.96 in 10.0 mi Calm Calm - N/A   Overcast
6:47 AM 68.0 °F 60.1 °F 76% 29.98 in 10.0 mi Calm Calm - N/A   Overcast
7:47 AM 69.1 °F 60.1 °F 73% 29.99 in 10.0 mi Calm Calm - N/A   Overcast
8:47 AM 69.1 °F 60.1 °F 73% 30.00 in 10.0 mi Calm Calm - N/A   Overcast
9:47 AM 71.1 °F 61.0 °F 70% 30.00 in 10.0 mi Calm Calm - N/A   Overcast
10:47 AM 72.0 °F 60.1 °F 66% 30.00 in 10.0 mi Calm Calm - N/A   Overcast
11:47 AM 75.0 °F 61.0 °F 62% 30.00 in 10.0 mi Calm Calm - N/A   Overcast
12:22 PM 77.0 °F 60.1 °F 56% 30.00 in 10.0 mi SSW 3.5 mph - N/A   Mostly Cloudy
12:47 PM 79.0 °F 60.1 °F 52% 29.99 in 10.0 mi Variable 3.5 mph - N/A   Mostly Cloudy
1:47 PM 79.0 °F 60.1 °F 52% 29.98 in 10.0 mi Variable 4.6 mph - N/A   Clear
2:47 PM 79.0 °F 60.1 °F 52% 29.97 in 10.0 mi West 6.9 mph - N/A   Clear
3:47 PM 77.0 °F 60.1 °F 56% 29.95 in 10.0 mi Variable 4.6 mph - N/A   Clear
4:47 PM 77.0 °F 60.1 °F 56% 29.93 in 10.0 mi West 6.9 mph - N/A   Clear
5:47 PM 75.9 °F 60.1 °F 58% 29.93 in 10.0 mi Variable 4.6 mph - N/A   Clear
6:47 PM 73.0 °F 60.1 °F 64% 29.94 in 10.0 mi Variable 6.9 mph - N/A   Clear
7:47 PM 71.1 °F 60.1 °F 68% 29.95 in 10.0 mi Variable 3.5 mph - N/A   Clear
8:47 PM 69.1 °F 61.0 °F 75% 29.97 in 10.0 mi Variable 3.5 mph - N/A   Clear
9:47 PM 69.1 °F 61.0 °F 75% 29.99 in 10.0 mi Variable 3.5 mph - N/A   Clear
10:47 PM 68.0 °F 60.1 °F 76% 29.99 in 10.0 mi Variable 3.5 mph - N/A   Clear
11:47 PM 66.9 °F 61.0 °F 81% 29.99 in 10.0 mi Calm Calm - N/A   Clear